• în România
  • Lista ţărilor
  • Pe 7 zile
  • Temperatura apei
  • Hartă satelitară
  • Meteo pe hartă
  • Widget-uri
  • user-avatar
    Intrare

    Meteo pe oră la Durres

    Astăzi, 12 Decembrie, Marţi

    Timp Temperatura Precipitaţii Vânt Presiune Umiditate
    00:00 +8°C° 0 mm 10 m/s 763 mmHg 77%
    01:00 +8°C° 0 mm 10 m/s 762 mmHg 82%
    02:00 +8°C° 0 mm 10 m/s 762 mmHg 82%
    03:00 +8°C° 0 mm 9 m/s 762 mmHg 82%
    04:00 +8°C° 0 mm 9 m/s 763 mmHg 82%
    05:00 +10°C° 0 mm 8 m/s 763 mmHg 82%
    06:00 +10°C° 0 mm 8 m/s 763 mmHg 82%
    07:00 +10°C° 0 mm 9 m/s 762 mmHg 85%
    08:00 +11°C° 0 mm 9 m/s 763 mmHg 82%
    09:00 +13°C° 0 mm 8 m/s 763 mmHg 79%
    10:00 +15°C° 0 mm 8 m/s 763 mmHg 76%
    11:00 +16°C° 0 mm 8 m/s 763 mmHg 74%
    12:00 +16°C° 0 mm 9 m/s 763 mmHg 72%
    13:00 +17°C° 0 mm 9 m/s 763 mmHg 70%
    14:00 +16°C° 0 mm 9 m/s 763 mmHg 74%
    15:00 +15°C° 0 mm 8 m/s 763 mmHg 79%
    16:00 +13°C° 0 mm 8 m/s 763 mmHg 83%
    17:00 +12°C° 0 mm 8 m/s 763 mmHg 84%
    18:00 +12°C° 0 mm 8 m/s 764 mmHg 85%
    19:00 +11°C° 0 mm 7 m/s 764 mmHg 86%
    20:00 +11°C° 0 mm 7 m/s 764 mmHg 85%
    21:00 +11°C° 0 mm 7 m/s 764 mmHg 85%
    22:00 +11°C° 0 mm 7 m/s 765 mmHg 84%
    23:00 +11°C° 0 mm 7 m/s 765 mmHg 84%

    Mâine, 13 Decembrie, Miercuri

    Timp Temperatura Precipitaţii Vânt Presiune Umiditate
    00:00 +10°C° 0 mm 7 m/s 765 mmHg 84%
    01:00 +10°C° 0 mm 7 m/s 765 mmHg 84%
    02:00 +10°C° 0 mm 7 m/s 764 mmHg 84%
    03:00 +10°C° 0 mm 7 m/s 764 mmHg 84%
    04:00 +10°C° 0 mm 7 m/s 764 mmHg 85%
    05:00 +10°C° 0 mm 7 m/s 764 mmHg 84%
    06:00 +10°C° 0 mm 7 m/s 764 mmHg 84%
    07:00 +10°C° 0 mm 7 m/s 764 mmHg 84%
    08:00 +11°C° 0 mm 8 m/s 764 mmHg 79%
    09:00 +13°C° 0 mm 8 m/s 764 mmHg 75%
    10:00 +15°C° 0 mm 8 m/s 764 mmHg 70%
    11:00 +16°C° 0 mm 8 m/s 763 mmHg 68%
    12:00 +16°C° 0 mm 8 m/s 763 mmHg 65%
    13:00 +17°C° 0 mm 9 m/s 762 mmHg 63%
    14:00 +16°C° 0,1 mm 8 m/s 762 mmHg 68%
    15:00 +15°C° 0,1 mm 8 m/s 762 mmHg 73%
    16:00 +13°C° 0,1 mm 8 m/s 761 mmHg 79%
    17:00 +12°C° 0,6 mm 8 m/s 761 mmHg 80%
    18:00 +12°C° 0,6 mm 8 m/s 761 mmHg 82%
    19:00 +11°C° 0,6 mm 8 m/s 761 mmHg 84%
    20:00 +11°C° 1,6 mm 8 m/s 761 mmHg 86%
    21:00 +11°C° 1,6 mm 7 m/s 761 mmHg 89%
    22:00 +11°C° 1,6 mm 7 m/s 761 mmHg 92%
    23:00 +11°C° 1,2 mm 7 m/s 761 mmHg 93%

    Poimâine, 14 Decembrie, Joi

    Timp Temperatura Precipitaţii Vânt Presiune Umiditate
    00:00 +11°C° 1,2 mm 7 m/s 761 mmHg 95%
    01:00 +11°C° 1,2 mm 6 m/s 761 mmHg 96%
    02:00 +10°C° 0,1 mm 6 m/s 761 mmHg 95%
    03:00 +10°C° 0,1 mm 5 m/s 761 mmHg 95%
    04:00 +9°C° 0,1 mm 5 m/s 761 mmHg 94%
    05:00 +10°C° 0,1 mm 4 m/s 762 mmHg 93%
    06:00 +10°C° 0,1 mm 4 m/s 762 mmHg 92%
    07:00 +10°C° 0,1 mm 3 m/s 762 mmHg 90%
    08:00 +10°C° 0,1 mm 3 m/s 763 mmHg 84%
    09:00 +11°C° 0,1 mm 3 m/s 763 mmHg 78%
    10:00 +12°C° 0,1 mm 3 m/s 763 mmHg 72%
    11:00 +12°C° 0,1 mm 3 m/s 763 mmHg 71%
    12:00 +13°C° 0,1 mm 2 m/s 762 mmHg 70%
    13:00 +13°C° 0,1 mm 2 m/s 762 mmHg 69%
    14:00 +13°C° 0 mm 2 m/s 762 mmHg 72%
    15:00 +12°C° 0 mm 2 m/s 762 mmHg 76%
    16:00 +11°C° 0 mm 3 m/s 762 mmHg 79%
    17:00 +10°C° 0 mm 3 m/s 762 mmHg 80%
    18:00 +10°C° 0 mm 4 m/s 762 mmHg 81%
    19:00 +8°C° 0 mm 4 m/s 762 mmHg 82%
    20:00 +8°C° 0 mm 5 m/s 762 mmHg 81%
    21:00 +8°C° 0 mm 5 m/s 762 mmHg 80%
    22:00 +8°C° 0 mm 6 m/s 762 mmHg 80%
    23:00 +8°C° 0 mm 6 m/s 762 mmHg 77%

    15 Decembrie, Vineri

    Timp Temperatura Precipitaţii Vânt Presiune Umiditate
    00:00 +7°C° 0 mm 6 m/s 762 mmHg 75%
    01:00 +7°C° 0 mm 6 m/s 761 mmHg 72%
    02:00 +7°C° 0 mm 6 m/s 761 mmHg 72%
    03:00 +8°C° 0 mm 6 m/s 761 mmHg 72%
    04:00 +8°C° 0 mm 7 m/s 760 mmHg 72%
    05:00 +8°C° 0,2 mm 7 m/s 760 mmHg 73%
    06:00 +7°C° 0,2 mm 8 m/s 760 mmHg 74%
    07:00 +7°C° 0,2 mm 8 m/s 760 mmHg 74%
    08:00 +8°C° 0,2 mm 9 m/s 760 mmHg 74%
    09:00 +10°C° 0,2 mm 9 m/s 760 mmHg 73%
    10:00 +11°C° 0,2 mm 10 m/s 759 mmHg 73%
    11:00 +12°C° 0,1 mm 10 m/s 759 mmHg 74%
    12:00 +12°C° 0,1 mm 11 m/s 758 mmHg 76%
    13:00 +13°C° 0,1 mm 11 m/s 758 mmHg 77%
    14:00 +13°C° 0 mm 11 m/s 758 mmHg 79%
    15:00 +12°C° 0 mm 11 m/s 757 mmHg 81%
    16:00 +12°C° 0 mm 11 m/s 757 mmHg 83%
    17:00 +11°C° 0 mm 11 m/s 757 mmHg 84%
    18:00 +11°C° 0 mm 10 m/s 757 mmHg 84%
    19:00 +9°C° 0 mm 10 m/s 757 mmHg 85%
    20:00 +9°C° 0 mm 10 m/s 757 mmHg 83%
    21:00 +9°C° 0 mm 10 m/s 757 mmHg 82%
    22:00 +8°C° 0 mm 10 m/s 757 mmHg 81%
    23:00 +9°C° 0,1 mm 10 m/s 756 mmHg 82%

    16 Decembrie, Sâmbătă

    Timp Temperatura Precipitaţii Vânt Presiune Umiditate
    00:00 +9°C° 0,1 mm 10 m/s 756 mmHg 83%
    01:00 +11°C° 0,1 mm 10 m/s 756 mmHg 84%
    02:00 +9°C° 0,2 mm 10 m/s 755 mmHg 85%
    03:00 +9°C° 0,2 mm 10 m/s 755 mmHg 86%
    04:00 +9°C° 0,2 mm 10 m/s 755 mmHg 87%
    05:00 +9°C° 0,6 mm 10 m/s 755 mmHg 87%
    06:00 +9°C° 0,6 mm 10 m/s 755 mmHg 87%
    07:00 +11°C° 0,6 mm 10 m/s 755 mmHg 88%
    08:00 +11°C° 0,9 mm 10 m/s 755 mmHg 85%
    09:00 +12°C° 0,9 mm 10 m/s 755 mmHg 83%
    10:00 +13°C° 0,9 mm 10 m/s 755 mmHg 80%
    11:00 +13°C° 0,9 mm 8 m/s 755 mmHg 82%
    12:00 +14°C° 0,9 mm 7 m/s 754 mmHg 85%
    13:00 +13°C° 0,9 mm 6 m/s 754 mmHg 87%
    14:00 +13°C° 1,9 mm 6 m/s 754 mmHg 89%
    15:00 +12°C° 1,9 mm 5 m/s 754 mmHg 91%
    16:00 +12°C° 1,9 mm 5 m/s 754 mmHg 93%
    17:00 +12°C° 2,4 mm 4 m/s 754 mmHg 94%
    18:00 +11°C° 2,4 mm 3 m/s 754 mmHg 94%
    19:00 +12°C° 2,4 mm 2 m/s 754 mmHg 94%
    20:00 +12°C° 1,4 mm 2 m/s 753 mmHg 93%
    21:00 +12°C° 1,4 mm 2 m/s 753 mmHg 93%
    22:00 +12°C° 1,4 mm 2 m/s 753 mmHg 92%
    23:00 +11°C° 1,3 mm 3 m/s 753 mmHg 93%

    17 Decembrie, Duminică

    Timp Temperatura Precipitaţii Vânt Presiune Umiditate
    00:00 +11°C° 1,3 mm 4 m/s 753 mmHg 94%
    01:00 +10°C° 1,3 mm 4 m/s 752 mmHg 95%
    02:00 +9°C° 0,9 mm 5 m/s 753 mmHg 95%
    03:00 +9°C° 0,9 mm 5 m/s 753 mmHg 96%
    04:00 +9°C° 0,9 mm 5 m/s 754 mmHg 96%
    05:00 +8°C° 0,5 mm 5 m/s 754 mmHg 95%
    06:00 +8°C° 0,5 mm 5 m/s 755 mmHg 94%
    07:00 +8°C° 0,5 mm 4 m/s 756 mmHg 93%
    08:00 +8°C° 0,2 mm 4 m/s 757 mmHg 87%
    09:00 +10°C° 0,2 mm 4 m/s 757 mmHg 82%
    10:00 +11°C° 0,2 mm 4 m/s 758 mmHg 77%
    11:00 +11°C° 0,2 mm 4 m/s 758 mmHg 74%
    12:00 +11°C° 0,2 mm 4 m/s 758 mmHg 72%
    13:00 +11°C° 0,2 mm 4 m/s 758 mmHg 69%
    14:00 +11°C° 0,1 mm 4 m/s 759 mmHg 73%
    15:00 +10°C° 0,1 mm 4 m/s 759 mmHg 76%
    16:00 +8°C° 0,1 mm 4 m/s 760 mmHg 79%
    17:00 +9°C° 0 mm 3 m/s 760 mmHg 81%
    18:00 +8°C° 0 mm 3 m/s 761 mmHg 82%
    19:00 +7°C° 0 mm 3 m/s 761 mmHg 84%
    20:00 +7°C° 0 mm 3 m/s 762 mmHg 83%
    21:00 +5°C° 0 mm 3 m/s 762 mmHg 83%
    22:00 +5°C° 0 mm 3 m/s 763 mmHg 83%
    23:00 +5°C° 0 mm 4 m/s 763 mmHg 82%
    Arată mai mult